Hourly Data Report for June 29, 2018

TORONTO CITY
ONTARIO
Current Station Operator: ECCC - MSC

43°40'00.000" N
79°24'00.000" W
112.50 m
6158355
71508
XTO

Download Data

Hourly Data (June 2018)
Hourly Data Report for June 29, 2018
TIME
LST
Temp Definition
°C
Dew Point Definition
°C
Rel Hum Definition
%
Precip. Amount Definition
mm

Wind Dir Definition
10's deg

Wind Spd Definition
km/h
Visibility Definition
km
Stn Press Definition
kPa
Hmdx Definition


Wind Chill Definition


Weather Definition


00:00 22.1 16.2 69 0.0 LegendMM LegendMM   99.90 27   LegendNANA
01:00 21.2 16.6 75 0.0 LegendMM LegendMM   99.92 26   LegendNANA
02:00 20.1 16.1 78 0.0 LegendMM LegendMM   99.97 25   LegendNANA
03:00 20.1 16.3 79 0.0 LegendMM LegendMM   100.01 25   LegendNANA
04:00 20.3 16.4 79 0.0 LegendMM LegendMM   100.04 25   LegendNANA
05:00 20.5 15.4 72 0.0 LegendMM LegendMM   100.08 25   LegendNANA
06:00 20.5 15.6 74 0.0 LegendMM LegendMM   100.15 25   LegendNANA
07:00 23.0 15.3 62 0.0 LegendMM LegendMM   100.18 27   LegendNANA
08:00 25.9 12.8 44 0.0 LegendMM LegendMM   100.27 29   LegendNANA
09:00 27.7 13.5 42 0.0 LegendMM LegendMM   100.29 31   LegendNANA
10:00 28.9 11.5 34 0.0 LegendMM LegendMM   100.30 31   LegendNANA
11:00 28.1 15.3 46 0.0 LegendMM LegendMM   100.32 32   LegendNANA
12:00 27.6 15.1 46 0.0 LegendMM LegendMM   100.34 32   LegendNANA
13:00 29.0 13.9 40 0.0 LegendMM LegendMM   100.32 32   LegendNANA
14:00 29.8 12.3 34 0.0 LegendMM LegendMM   100.23 32   LegendNANA
15:00 30.2 11.8 32 0.0 LegendMM LegendMM   100.25 32   LegendNANA
16:00 30.4 11.3 31 0.0 LegendMM LegendMM   100.22 32   LegendNANA
17:00 29.0 15.8 45 0.0 LegendMM LegendMM   100.18 33   LegendNANA
18:00 28.2 14.9 44 0.0 LegendMM LegendMM   100.10 32   LegendNANA
19:00 27.5 13.6 43 0.0 LegendMM LegendMM   100.06 31   LegendNANA
20:00 26.6 13.5 44 0.0 LegendMM LegendMM   100.13 30   LegendNANA
21:00 24.9 14.0 51 0.0 LegendMM LegendMM   100.17 28   LegendNANA
22:00 24.1 15.8 60 0.0 LegendMM LegendMM   100.13 29   LegendNANA
23:00 23.6 16.8 66 0.0 LegendMM LegendMM   100.16 29   LegendNANA

Notes on Data Quality.

Legend

  • E = Estimated
  • M = Missing
  • NA = Not Available*
  • [empty] = Indicates an unobserved value
Date modified: